UAL3905 PGUM-PHNL

Flight info

Callsign UAL3905
Flight time 6h 41m
Altitude 33000
Route DEWSS A450 JIMOS/N0497F350 A450 SYSTA/N0491F370 A450 BRIUN NONNI BOOKE BOOKE8
Aircraft B77W/H-SDE1E2E3FGHIJ2J3J4J5M1RWXY/LB1D1

Departure

Time 2026-04-21 15:31
Airport Antonio B. Won Pat International Airport (PGUM)

Arrival

Time 2026-04-21 22:13
Airport Daniel K. Inouye International Airport (PHNL)
Time Latitude Longitude Altitude Speed Heading
2026-04-21 14:56 13.49150 144.80532 304 ft 0 kts 332°
2026-04-21 15:22 13.49146 144.80534 304 ft 3 kts 332°
2026-04-21 15:22 13.49128 144.80544 304 ft 3 kts 315°
2026-04-21 15:22 13.49121 144.80555 301 ft 0 kts 281°
2026-04-21 15:24 13.49121 144.80554 301 ft 1 kts 281°
2026-04-21 15:24 13.49108 144.80536 305 ft 6 kts 210°
2026-04-21 15:24 13.49053 144.80494 303 ft 14 kts 224°
2026-04-21 15:24 13.48966 144.80401 302 ft 20 kts 224°
2026-04-21 15:25 13.48885 144.80288 304 ft 20 kts 240°
2026-04-21 15:25 13.48821 144.80161 298 ft 20 kts 244°
2026-04-21 15:25 13.48762 144.80033 294 ft 20 kts 244°
2026-04-21 15:25 13.48703 144.79907 288 ft 20 kts 244°
2026-04-21 15:26 13.48643 144.79779 283 ft 20 kts 244°
2026-04-21 15:26 13.48585 144.79651 281 ft 20 kts 245°
2026-04-21 15:26 13.48526 144.79522 276 ft 20 kts 245°
2026-04-21 15:26 13.48468 144.79393 273 ft 20 kts 245°
2026-04-21 15:27 13.48410 144.79265 272 ft 20 kts 245°
2026-04-21 15:27 13.48350 144.79136 270 ft 20 kts 245°
2026-04-21 15:27 13.48292 144.79008 270 ft 20 kts 245°
2026-04-21 15:27 13.48234 144.78879 268 ft 20 kts 245°
2026-04-21 15:28 13.48175 144.78751 265 ft 20 kts 244°
2026-04-21 15:28 13.48116 144.78623 263 ft 20 kts 245°
2026-04-21 15:28 13.48058 144.78494 257 ft 20 kts 245°
2026-04-21 15:28 13.47999 144.78365 253 ft 20 kts 245°
2026-04-21 15:29 13.47941 144.78237 250 ft 20 kts 245°
2026-04-21 15:29 13.47894 144.78152 248 ft 8 kts 224°
2026-04-21 15:29 13.47884 144.78145 247 ft 0 kts 214°
2026-04-21 15:30 13.47861 144.78136 247 ft 9 kts 190°
2026-04-21 15:30 13.47807 144.78169 248 ft 10 kts 116°
2026-04-21 15:30 13.47820 144.78236 249 ft 10 kts 63°
2026-04-21 15:30 13.47847 144.78301 251 ft 10 kts 65°
2026-04-21 15:31 13.47945 144.78514 255 ft 73 kts 64°
2026-04-21 15:31 13.48286 144.79260 272 ft 156 kts 65°
2026-04-21 15:31 13.48850 144.80498 400 ft 214 kts 65°
2026-04-21 15:31 13.49468 144.81873 1418 ft 214 kts 66°
2026-04-21 15:32 13.50032 144.83348 2453 ft 228 kts 71°
2026-04-21 15:32 13.50576 144.84916 2962 ft 241 kts 71°
2026-04-21 15:32 13.51141 144.86574 3469 ft 249 kts 71°
2026-04-21 15:32 13.51719 144.88280 4170 ft 256 kts 71°
2026-04-21 15:33 13.52313 144.90029 4786 ft 262 kts 71°
2026-04-21 15:33 13.52914 144.91798 5532 ft 264 kts 71°
2026-04-21 15:33 13.53528 144.93602 6192 ft 268 kts 72°
2026-04-21 15:33 13.54141 144.95408 6878 ft 270 kts 71°
2026-04-21 15:34 13.54768 144.97250 7426 ft 275 kts 71°
2026-04-21 15:34 13.55403 144.99113 8040 ft 279 kts 71°
2026-04-21 15:34 13.56052 145.01015 8605 ft 284 kts 71°
2026-04-21 15:34 13.56706 145.02937 9243 ft 287 kts 72°
2026-04-21 15:35 13.57374 145.04900 9760 ft 293 kts 71°
2026-04-21 15:35 13.58052 145.06890 10303 ft 298 kts 71°
2026-04-21 15:35 13.58758 145.08962 10508 ft 316 kts 71°
2026-04-21 15:35 13.59493 145.11125 10948 ft 324 kts 71°
2026-04-21 15:36 13.60235 145.13305 11485 ft 329 kts 71°
2026-04-21 15:36 13.60996 145.15538 12092 ft 332 kts 72°
2026-04-21 15:36 13.61762 145.17789 12713 ft 334 kts 72°
2026-04-21 15:36 13.62533 145.20054 13343 ft 337 kts 71°
2026-04-21 15:37 13.63310 145.22338 13906 ft 340 kts 72°
2026-04-21 15:37 13.64094 145.24646 14425 ft 344 kts 72°
2026-04-21 15:37 13.64888 145.26982 14947 ft 348 kts 71°
2026-04-21 15:37 13.65689 145.29341 15471 ft 351 kts 71°
2026-04-21 15:38 13.66499 145.31727 16014 ft 355 kts 71°
2026-04-21 15:38 13.67316 145.34133 16549 ft 359 kts 71°
2026-04-21 15:38 13.68143 145.36568 17082 ft 363 kts 71°
2026-04-21 15:38 13.68976 145.39025 17608 ft 366 kts 71°
2026-04-21 15:39 13.69822 145.41517 18132 ft 371 kts 71°
2026-04-21 15:39 13.70674 145.44032 18584 ft 374 kts 71°
2026-04-21 15:39 13.71534 145.46570 19054 ft 377 kts 70°
2026-04-21 15:39 13.72401 145.49130 19530 ft 380 kts 70°
2026-04-21 15:40 13.73263 145.51673 20005 ft 383 kts 70°
2026-04-21 15:40 13.74152 145.54300 20496 ft 386 kts 70°
2026-04-21 15:40 13.75028 145.56889 20942 ft 389 kts 70°
2026-04-21 15:40 13.75920 145.59526 21428 ft 392 kts 70°
2026-04-21 15:41 13.76819 145.62186 21899 ft 395 kts 70°
2026-04-21 15:41 13.77724 145.64866 22359 ft 398 kts 70°
2026-04-21 15:41 13.78636 145.67565 22815 ft 401 kts 70°
2026-04-21 15:41 13.79554 145.70285 23241 ft 404 kts 70°
2026-04-21 15:42 13.80478 145.73021 23645 ft 407 kts 69°
2026-04-21 15:42 13.81410 145.75783 24039 ft 409 kts 70°
2026-04-21 15:42 13.82346 145.78559 24430 ft 411 kts 70°
2026-04-21 15:42 13.83285 145.81343 24827 ft 413 kts 70°
2026-04-21 15:43 13.84233 145.84155 25206 ft 416 kts 70°
2026-04-21 15:43 13.85172 145.86944 25578 ft 418 kts 70°
2026-04-21 15:43 13.86127 145.89782 25942 ft 421 kts 70°
2026-04-21 15:43 13.87089 145.92639 26321 ft 423 kts 70°
2026-04-21 15:44 13.88053 145.95507 26700 ft 426 kts 70°
2026-04-21 15:44 13.89037 145.98433 27051 ft 429 kts 70°
2026-04-21 15:44 13.90003 146.01306 27389 ft 432 kts 70°
2026-04-21 15:44 13.90990 146.04244 27720 ft 435 kts 70°
2026-04-21 15:45 13.91979 146.07191 28129 ft 436 kts 70°
2026-04-21 15:45 13.92973 146.10152 28492 ft 438 kts 70°
2026-04-21 15:45 13.93971 146.13127 28791 ft 442 kts 70°
2026-04-21 15:45 13.94977 146.16127 29130 ft 444 kts 70°
2026-04-21 15:46 13.95990 146.19149 29466 ft 447 kts 70°
2026-04-21 15:46 13.97004 146.22173 29801 ft 449 kts 70°
2026-04-21 15:46 13.98024 146.25221 30129 ft 451 kts 70°
2026-04-21 15:46 13.99047 146.28277 30386 ft 453 kts 70°
2026-04-21 15:47 14.00074 146.31349 30673 ft 455 kts 70°
2026-04-21 15:47 14.01109 146.34442 30913 ft 458 kts 70°
2026-04-21 15:47 14.02138 146.37518 31080 ft 462 kts 70°
2026-04-21 15:47 14.03202 146.40703 31206 ft 468 kts 70°
2026-04-21 15:48 14.04250 146.43842 31341 ft 472 kts 70°
2026-04-21 15:48 14.05320 146.47048 31530 ft 475 kts 70°
2026-04-21 15:48 14.06396 146.50272 31749 ft 477 kts 70°
2026-04-21 15:48 14.07477 146.53515 31967 ft 479 kts 70°
2026-04-21 15:49 14.08562 146.56773 32162 ft 482 kts 70°
2026-04-21 15:49 14.09655 146.60053 32358 ft 484 kts 70°
2026-04-21 15:49 14.10376 146.62221 32534 ft 484 kts 70°
2026-04-21 15:49 14.11843 146.66629 32829 ft 486 kts 70°
2026-04-21 15:50 14.13683 146.72159 32922 ft 493 kts 70°
2026-04-21 15:50 14.15913 146.78870 32940 ft 493 kts 70°
2026-04-21 15:51 14.18143 146.85589 32956 ft 497 kts 70°
2026-04-21 15:51 14.20360 146.92278 32955 ft 496 kts 70°
2026-04-21 15:52 14.22589 146.99008 32958 ft 498 kts 70°
2026-04-21 15:52 14.24816 147.05738 32957 ft 496 kts 70°
2026-04-21 15:53 14.27046 147.12484 32944 ft 497 kts 70°
2026-04-21 15:53 14.29277 147.19240 32948 ft 497 kts 70°
2026-04-21 15:54 14.31510 147.26012 32950 ft 499 kts 71°
2026-04-21 15:54 14.33743 147.32791 32947 ft 499 kts 70°
2026-04-21 15:55 14.35971 147.39559 32950 ft 499 kts 71°
2026-04-21 15:55 14.38193 147.46317 32953 ft 500 kts 71°
2026-04-21 15:56 14.40427 147.53119 32951 ft 501 kts 71°
2026-04-21 15:56 14.42665 147.59939 32947 ft 501 kts 71°
2026-04-21 15:57 14.44899 147.66755 32948 ft 501 kts 71°
2026-04-21 15:57 14.47137 147.73592 32952 ft 504 kts 71°
2026-04-21 15:58 14.49372 147.80428 32953 ft 508 kts 71°
2026-04-21 15:58 14.51651 147.87402 32954 ft 511 kts 71°
2026-04-21 15:59 14.53909 147.94323 32953 ft 513 kts 71°
2026-04-21 15:59 14.56183 148.01300 32944 ft 513 kts 71°
2026-04-21 16:00 14.58451 148.08266 32944 ft 511 kts 71°
2026-04-21 16:00 14.60708 148.15209 32941 ft 509 kts 71°
2026-04-21 16:01 14.62956 148.22127 32943 ft 508 kts 71°
2026-04-21 16:01 14.65199 148.29040 32950 ft 507 kts 71°
2026-04-21 16:02 14.67437 148.35945 32952 ft 507 kts 71°
2026-04-21 16:02 14.69673 148.42850 32948 ft 507 kts 71°
2026-04-21 16:03 14.71896 148.49724 32949 ft 508 kts 71°
2026-04-21 16:03 14.74134 148.56653 32951 ft 509 kts 71°
2026-04-21 16:04 14.76373 148.63592 32948 ft 509 kts 71°
2026-04-21 16:04 14.78613 148.70543 32950 ft 510 kts 71°
2026-04-21 16:05 14.80853 148.77501 32951 ft 510 kts 71°
2026-04-21 16:05 14.83093 148.84467 32953 ft 511 kts 71°
2026-04-21 16:06 14.85330 148.91434 32951 ft 511 kts 71°
2026-04-21 16:06 14.87567 148.98406 32950 ft 511 kts 71°
2026-04-21 16:07 14.89590 149.05401 32954 ft 511 kts 74°
2026-04-21 16:07 14.91447 149.12492 32951 ft 511 kts 74°
2026-04-21 16:08 14.94256 149.23117 32952 ft 511 kts 74°
2026-04-21 16:09 14.96164 149.30189 32950 ft 511 kts 73°
2026-04-21 16:09 14.98077 149.37259 32951 ft 511 kts 73°
2026-04-21 16:10 14.99989 149.44337 32953 ft 511 kts 73°
2026-04-21 16:10 15.01897 149.51419 32952 ft 511 kts 74°
2026-04-21 16:11 15.03805 149.58515 32950 ft 511 kts 74°
2026-04-21 16:11 15.05707 149.65599 32953 ft 511 kts 74°
2026-04-21 16:12 15.07289 149.71495 32952 ft 511 kts 74°
2026-04-21 16:12 15.09510 149.79787 32952 ft 511 kts 74°
2026-04-21 16:13 15.11408 149.86883 32952 ft 511 kts 74°
2026-04-21 16:13 15.13291 149.93930 32954 ft 511 kts 74°
2026-04-21 16:14 15.15184 150.01028 32952 ft 511 kts 74°
2026-04-21 16:14 15.17075 150.08124 32949 ft 511 kts 74°
2026-04-21 16:15 15.18964 150.15224 32953 ft 511 kts 74°
2026-04-21 16:15 15.20850 150.22324 32954 ft 511 kts 74°
2026-04-21 16:16 15.22736 150.29430 32952 ft 512 kts 74°
2026-04-21 16:16 15.24618 150.36534 32950 ft 512 kts 74°
2026-04-21 16:17 15.26498 150.43639 32948 ft 512 kts 74°
2026-04-21 16:17 15.28380 150.50758 32956 ft 512 kts 74°
2026-04-21 16:18 15.30244 150.57823 32957 ft 512 kts 74°
2026-04-21 16:18 15.32121 150.64945 32951 ft 512 kts 74°
2026-04-21 16:19 15.33992 150.72056 32951 ft 512 kts 74°
2026-04-21 16:19 15.35863 150.79175 32956 ft 512 kts 74°
2026-04-21 16:20 15.37730 150.86290 32956 ft 512 kts 74°
2026-04-21 16:20 15.39597 150.93412 32952 ft 512 kts 74°
2026-04-21 16:21 15.41459 151.00529 32957 ft 512 kts 74°
2026-04-21 16:21 15.43322 151.07655 32955 ft 512 kts 74°
2026-04-21 16:22 15.45169 151.14733 32955 ft 512 kts 74°
2026-04-21 16:22 15.47027 151.21861 32954 ft 512 kts 74°
2026-04-21 16:23 15.48883 151.28996 32952 ft 512 kts 74°
2026-04-21 16:23 15.50735 151.36122 32957 ft 512 kts 74°
2026-04-21 16:24 15.52586 151.43254 32953 ft 512 kts 74°
2026-04-21 16:24 15.54434 151.50383 32955 ft 512 kts 74°
2026-04-21 16:25 15.56282 151.57525 32955 ft 512 kts 74°
2026-04-21 16:25 15.58127 151.64667 32956 ft 512 kts 74°
2026-04-21 16:26 15.59970 151.71809 32954 ft 512 kts 74°
2026-04-21 16:26 15.61812 151.78958 32953 ft 512 kts 74°
2026-04-21 16:27 15.63651 151.86103 32954 ft 513 kts 74°
2026-04-21 16:27 15.65479 151.93219 32974 ft 513 kts 74°
2026-04-21 16:28 15.67316 152.00377 32957 ft 513 kts 74°
2026-04-21 16:28 15.69148 152.07530 32955 ft 513 kts 74°
2026-04-21 16:29 15.70669 152.13474 32957 ft 513 kts 74°
2026-04-21 16:29 15.72806 152.21842 32956 ft 513 kts 74°
2026-04-21 16:30 15.74620 152.28951 32955 ft 513 kts 74°
2026-04-21 16:30 15.76444 152.36111 32958 ft 513 kts 74°
2026-04-21 16:31 15.78268 152.43282 32957 ft 513 kts 74°
2026-04-21 16:31 15.80087 152.50446 32956 ft 513 kts 74°
2026-04-21 16:32 15.81906 152.57619 32952 ft 513 kts 74°
2026-04-21 16:32 15.83722 152.64790 32957 ft 513 kts 74°
2026-04-21 16:33 15.85537 152.71971 32955 ft 513 kts 74°
2026-04-21 16:33 15.87349 152.79147 32951 ft 513 kts 74°
2026-04-21 16:34 15.89158 152.86323 32959 ft 514 kts 74°
2026-04-21 16:34 15.90952 152.93450 32954 ft 514 kts 74°
2026-04-21 16:35 15.92758 153.00635 32956 ft 514 kts 74°
2026-04-21 16:35 15.94561 153.07822 32958 ft 514 kts 74°
2026-04-21 16:36 15.96362 153.15009 32958 ft 514 kts 74°
2026-04-21 16:36 15.98160 153.22194 32956 ft 514 kts 74°
2026-04-21 16:37 15.99957 153.29385 32956 ft 514 kts 74°
2026-04-21 16:37 16.01751 153.36576 32959 ft 514 kts 74°
2026-04-21 16:38 16.03543 153.43771 32952 ft 514 kts 74°
2026-04-21 16:38 16.05331 153.50960 32952 ft 514 kts 74°
2026-04-21 16:39 16.06816 153.56942 32953 ft 514 kts 74°
2026-04-21 16:39 16.08602 153.64140 32956 ft 514 kts 75°
2026-04-21 16:40 16.10383 153.71336 32958 ft 514 kts 75°
2026-04-21 16:40 16.12162 153.78530 32955 ft 514 kts 74°
2026-04-21 16:41 16.13942 153.85739 32955 ft 514 kts 74°
2026-04-21 16:41 16.15717 153.92941 32957 ft 514 kts 74°
2026-04-21 16:42 16.17490 154.00145 32958 ft 514 kts 74°
2026-04-21 16:42 16.19249 154.07302 32954 ft 514 kts 75°
2026-04-21 16:43 16.21018 154.14511 32957 ft 514 kts 75°
2026-04-21 16:43 16.22783 154.21718 32953 ft 514 kts 75°
2026-04-21 16:44 16.24549 154.28939 32953 ft 514 kts 75°
2026-04-21 16:44 16.26311 154.36152 32955 ft 514 kts 75°
2026-04-21 16:45 16.28058 154.43318 32954 ft 514 kts 75°
2026-04-21 16:45 16.29812 154.50524 32952 ft 514 kts 75°
2026-04-21 16:46 16.31566 154.57739 32955 ft 514 kts 75°
2026-04-21 16:46 16.33317 154.64956 32953 ft 514 kts 75°
2026-04-21 16:47 16.35064 154.72163 32955 ft 514 kts 75°
2026-04-21 16:47 16.36812 154.79389 32954 ft 514 kts 75°
2026-04-21 16:48 16.38557 154.86615 32956 ft 514 kts 75°
2026-04-21 16:48 16.40286 154.93786 32954 ft 514 kts 75°
2026-04-21 16:49 16.42024 155.01005 32954 ft 514 kts 75°
2026-04-21 16:49 16.43759 155.08220 32956 ft 514 kts 75°
2026-04-21 16:50 16.45493 155.15447 32954 ft 514 kts 75°
2026-04-21 16:50 16.47224 155.22673 32954 ft 514 kts 75°
2026-04-21 16:51 16.48951 155.29892 32950 ft 514 kts 75°
2026-04-21 16:51 16.50678 155.37123 32958 ft 514 kts 75°
2026-04-21 16:52 16.52402 155.44353 32952 ft 514 kts 75°
2026-04-21 16:52 16.54111 155.51529 32952 ft 514 kts 75°
2026-04-21 16:53 16.55830 155.58762 32952 ft 514 kts 75°
2026-04-21 16:53 16.57544 155.65985 32954 ft 513 kts 75°
2026-04-21 16:54 16.59258 155.73222 32953 ft 513 kts 75°
2026-04-21 16:54 16.60968 155.80450 32953 ft 513 kts 75°
2026-04-21 16:55 16.62674 155.87674 32955 ft 513 kts 75°
2026-04-21 16:55 16.64377 155.94901 32954 ft 513 kts 75°
2026-04-21 16:56 16.66079 156.02130 32953 ft 513 kts 75°
2026-04-21 16:56 16.67767 156.09317 32956 ft 513 kts 75°
2026-04-21 16:57 16.69465 156.16554 32952 ft 513 kts 75°
2026-04-21 16:57 16.71159 156.23788 32952 ft 513 kts 75°
2026-04-21 16:58 16.72852 156.31028 32952 ft 513 kts 75°
2026-04-21 16:58 16.74538 156.38251 32955 ft 513 kts 75°
2026-04-21 16:59 16.76212 156.45434 32955 ft 513 kts 75°
2026-04-21 16:59 16.77896 156.52675 32952 ft 513 kts 75°
2026-04-21 17:00 16.79575 156.59907 32952 ft 512 kts 75°
2026-04-21 17:00 16.80967 156.65909 32948 ft 512 kts 75°
2026-04-21 17:01 16.82924 156.74363 32950 ft 512 kts 75°
2026-04-21 17:01 16.84597 156.81600 32962 ft 512 kts 75°
2026-04-21 17:02 16.86265 156.88831 32956 ft 512 kts 75°
2026-04-21 17:02 16.87921 156.96022 32954 ft 512 kts 75°
2026-04-21 17:03 16.89586 157.03264 32954 ft 512 kts 75°
2026-04-21 17:03 16.91247 157.10504 32951 ft 512 kts 75°
2026-04-21 17:04 16.92906 157.17742 32954 ft 512 kts 75°
2026-04-21 17:04 16.94560 157.24974 32947 ft 512 kts 75°
2026-04-21 17:05 16.96212 157.32208 32951 ft 512 kts 75°
2026-04-21 17:05 16.97861 157.39444 32958 ft 512 kts 75°
2026-04-21 17:06 16.99507 157.46679 32954 ft 512 kts 75°
2026-04-21 17:06 17.01142 157.53877 32957 ft 512 kts 75°
2026-04-21 17:07 17.02507 157.59895 32949 ft 512 kts 76°
2026-04-21 17:07 17.04422 157.68355 32952 ft 512 kts 76°
2026-04-21 17:08 17.06060 157.75604 32954 ft 512 kts 76°
2026-04-21 17:08 17.07693 157.82848 32954 ft 512 kts 76°
2026-04-21 17:09 17.10139 157.93722 32953 ft 512 kts 76°
2026-04-21 17:09 17.11765 158.00970 32957 ft 512 kts 76°
2026-04-21 17:10 17.13391 158.08230 32954 ft 512 kts 76°
2026-04-21 17:10 17.15012 158.15478 32956 ft 512 kts 76°
2026-04-21 17:11 17.16620 158.22683 32955 ft 512 kts 76°
2026-04-21 17:11 17.18236 158.29935 32961 ft 512 kts 76°
2026-04-21 17:12 17.19848 158.37187 32956 ft 512 kts 76°
2026-04-21 17:12 17.21459 158.44443 32962 ft 512 kts 76°
2026-04-21 17:13 17.23067 158.51700 32957 ft 512 kts 76°
2026-04-21 17:13 17.24673 158.58959 32957 ft 512 kts 76°
2026-04-21 17:14 17.26275 158.66212 32959 ft 512 kts 76°
2026-04-21 17:14 17.27874 158.73466 32950 ft 512 kts 76°
2026-04-21 17:15 17.29470 158.80722 32956 ft 512 kts 76°
2026-04-21 17:15 17.31063 158.87975 32964 ft 512 kts 76°
2026-04-21 17:16 17.32653 158.95230 32959 ft 512 kts 76°
2026-04-21 17:16 17.34242 159.02488 32963 ft 512 kts 76°
2026-04-21 17:17 17.35827 159.09745 32958 ft 512 kts 76°
2026-04-21 17:17 17.37410 159.17007 32961 ft 512 kts 76°
2026-04-21 17:18 17.38990 159.24269 32959 ft 512 kts 76°
2026-04-21 17:18 17.40570 159.31542 32954 ft 512 kts 76°
2026-04-21 17:19 17.42136 159.38761 32961 ft 512 kts 76°
2026-04-21 17:19 17.43712 159.46046 32955 ft 512 kts 76°
2026-04-21 17:20 17.45282 159.53313 32954 ft 512 kts 76°
2026-04-21 17:20 17.46853 159.60596 32953 ft 512 kts 76°
2026-04-21 17:21 17.48419 159.67875 32955 ft 512 kts 76°
2026-04-21 17:21 17.49983 159.75152 32961 ft 512 kts 77°
2026-04-21 17:22 17.51546 159.82445 32955 ft 512 kts 77°
2026-04-21 17:22 17.53098 159.89694 32958 ft 512 kts 77°
2026-04-21 17:23 17.54655 159.96982 32953 ft 513 kts 77°
2026-04-21 17:23 17.56210 160.04276 32952 ft 513 kts 77°
2026-04-21 17:24 17.57762 160.11568 32956 ft 513 kts 77°
2026-04-21 17:24 17.59313 160.18870 32960 ft 513 kts 77°
2026-04-21 17:25 17.60859 160.26160 32956 ft 513 kts 77°
2026-04-21 17:25 17.62393 160.33411 32958 ft 513 kts 77°
2026-04-21 17:26 17.63935 160.40711 32956 ft 513 kts 77°
2026-04-21 17:26 17.65473 160.48007 32959 ft 513 kts 77°
2026-04-21 17:27 17.67011 160.55318 32961 ft 513 kts 77°
2026-04-21 17:27 17.68544 160.62616 32956 ft 513 kts 77°
2026-04-21 17:28 17.70075 160.69924 32950 ft 513 kts 77°
2026-04-21 17:28 17.71605 160.77236 32960 ft 513 kts 77°
2026-04-21 17:29 17.73130 160.84540 32957 ft 513 kts 77°
2026-04-21 17:29 17.74652 160.91842 32960 ft 513 kts 77°
2026-04-21 17:30 17.75915 160.97915 32957 ft 513 kts 77°
2026-04-21 17:30 17.77433 161.05227 32957 ft 513 kts 77°
2026-04-21 17:31 17.78949 161.12543 32959 ft 513 kts 77°
2026-04-21 17:31 17.80460 161.19850 32955 ft 513 kts 77°
2026-04-21 17:32 17.81970 161.27162 32961 ft 513 kts 77°
2026-04-21 17:32 17.83477 161.34480 32955 ft 513 kts 77°
2026-04-21 17:33 17.84980 161.41791 32961 ft 513 kts 77°
2026-04-21 17:33 17.86483 161.49117 32960 ft 513 kts 77°
2026-04-21 17:34 17.87982 161.56436 32958 ft 513 kts 77°
2026-04-21 17:34 17.89480 161.63765 32950 ft 513 kts 77°
2026-04-21 17:35 17.90976 161.71099 32952 ft 513 kts 78°
2026-04-21 17:35 17.92467 161.78425 32962 ft 514 kts 78°
2026-04-21 17:36 17.93957 161.85761 32955 ft 514 kts 78°
2026-04-21 17:36 17.95447 161.93109 32961 ft 514 kts 78°
2026-04-21 17:37 17.96933 162.00452 32965 ft 514 kts 78°
2026-04-21 17:37 17.98416 162.07797 32959 ft 514 kts 78°
2026-04-21 17:38 17.99889 162.15105 32960 ft 514 kts 78°
2026-04-21 17:38 18.01370 162.22470 32959 ft 514 kts 78°
2026-04-21 17:39 18.02846 162.29828 32957 ft 514 kts 78°
2026-04-21 17:39 18.04321 162.37188 32955 ft 514 kts 78°
2026-04-21 17:40 18.05790 162.44542 32954 ft 514 kts 78°
2026-04-21 17:40 18.07249 162.51857 32953 ft 515 kts 78°
2026-04-21 17:41 18.08714 162.59215 32954 ft 515 kts 78°
2026-04-21 17:41 18.10176 162.66574 32960 ft 515 kts 78°
2026-04-21 17:42 18.11636 162.73940 32951 ft 515 kts 78°
2026-04-21 17:42 18.13094 162.81312 32955 ft 514 kts 78°
2026-04-21 17:43 18.14549 162.88683 32951 ft 514 kts 78°
2026-04-21 17:43 18.16000 162.96048 32953 ft 514 kts 78°
2026-04-21 17:44 18.17449 163.03421 32953 ft 514 kts 78°
2026-04-21 17:44 18.18894 163.10786 32948 ft 514 kts 78°
2026-04-21 17:45 18.20336 163.18155 32951 ft 514 kts 78°
2026-04-21 17:45 18.21766 163.25476 32958 ft 515 kts 78°
2026-04-21 17:46 18.23203 163.32847 32956 ft 515 kts 78°
2026-04-21 17:46 18.24637 163.40218 32955 ft 515 kts 78°
2026-04-21 17:47 18.26069 163.47599 32960 ft 515 kts 78°
2026-04-21 17:47 18.27497 163.54972 32954 ft 514 kts 78°
2026-04-21 17:48 18.28923 163.62349 32955 ft 515 kts 78°
2026-04-21 17:48 18.30346 163.69730 32958 ft 515 kts 78°
2026-04-21 17:49 18.31768 163.77120 32955 ft 515 kts 78°
2026-04-21 17:49 18.33185 163.84499 32953 ft 515 kts 78°
2026-04-21 17:50 18.34600 163.91886 32941 ft 514 kts 78°
2026-04-21 17:50 18.36001 163.99214 32948 ft 514 kts 78°
2026-04-21 17:51 18.37410 164.06599 32946 ft 514 kts 79°
2026-04-21 17:51 18.38814 164.13978 32955 ft 514 kts 79°
2026-04-21 17:52 18.40216 164.21356 32944 ft 514 kts 79°
2026-04-21 17:52 18.41612 164.28723 32950 ft 513 kts 79°
2026-04-21 17:53 18.43007 164.36103 32951 ft 513 kts 79°
2026-04-21 17:53 18.44399 164.43477 32953 ft 513 kts 79°
2026-04-21 17:54 18.45778 164.50804 32949 ft 513 kts 79°
2026-04-21 17:54 18.47164 164.58182 32954 ft 513 kts 79°
2026-04-21 17:55 18.48547 164.65558 32948 ft 513 kts 79°
2026-04-21 17:55 18.49926 164.72936 32951 ft 513 kts 79°
2026-04-21 17:56 18.51304 164.80320 32935 ft 513 kts 79°
2026-04-21 17:56 18.52667 164.87639 32941 ft 513 kts 79°
2026-04-21 17:57 18.54037 164.95014 32935 ft 513 kts 79°
2026-04-21 17:57 18.55406 165.02400 32945 ft 513 kts 79°
2026-04-21 17:58 18.56770 165.09779 32942 ft 513 kts 79°
2026-04-21 17:58 18.58132 165.17158 32950 ft 513 kts 79°
2026-04-21 17:59 18.59491 165.24543 32938 ft 513 kts 79°
2026-04-21 17:59 18.60849 165.31934 32942 ft 513 kts 79°
2026-04-21 18:00 18.62202 165.39319 32939 ft 513 kts 79°
2026-04-21 18:00 18.63554 165.46711 32946 ft 513 kts 79°
2026-04-21 18:01 18.64903 165.54107 32946 ft 513 kts 79°
2026-04-21 18:01 18.66247 165.61494 32947 ft 514 kts 79°
2026-04-21 18:02 18.67591 165.68896 32946 ft 514 kts 79°
2026-04-21 18:02 18.68925 165.76258 32945 ft 514 kts 79°
2026-04-21 18:03 18.70271 165.83706 32950 ft 514 kts 79°
2026-04-21 18:03 18.71596 165.91056 32944 ft 514 kts 79°
2026-04-21 18:04 18.72928 165.98463 32935 ft 514 kts 79°
2026-04-21 18:04 18.74258 166.05870 32946 ft 514 kts 79°
2026-04-21 18:05 18.75584 166.13275 32945 ft 514 kts 80°
2026-04-21 18:05 18.76907 166.20685 32948 ft 514 kts 79°
2026-04-21 18:06 18.78230 166.28107 32938 ft 514 kts 80°
2026-04-21 18:06 18.79549 166.35530 32933 ft 514 kts 80°
2026-04-21 18:07 18.80857 166.42904 32943 ft 514 kts 80°
2026-04-21 18:07 18.82171 166.50332 32938 ft 515 kts 80°
2026-04-21 18:08 18.83481 166.57752 32932 ft 515 kts 80°
2026-04-21 18:08 18.84791 166.65189 32942 ft 515 kts 80°
2026-04-21 18:09 18.86094 166.72623 32944 ft 514 kts 80°
2026-04-21 18:09 18.87378 166.80052 32943 ft 514 kts 80°
2026-04-21 18:10 18.88655 166.87487 32942 ft 514 kts 80°
2026-04-21 18:10 18.89930 166.94924 32933 ft 514 kts 80°
2026-04-21 18:11 18.91195 167.02308 32932 ft 514 kts 80°
2026-04-21 18:11 18.92467 167.09744 32939 ft 514 kts 80°
2026-04-21 18:12 18.93733 167.17173 32940 ft 514 kts 80°
2026-04-21 18:12 18.94998 167.24607 32926 ft 514 kts 80°
2026-04-21 18:13 18.96260 167.32044 32935 ft 514 kts 80°
2026-04-21 18:13 18.97519 167.39483 32931 ft 514 kts 81°
2026-04-21 18:14 18.99402 167.50646 32935 ft 514 kts 81°
2026-04-21 18:15 19.00653 167.58086 32936 ft 514 kts 81°
2026-04-21 18:15 19.01902 167.65528 32940 ft 514 kts 81°
2026-04-21 18:16 19.03148 167.72977 32934 ft 514 kts 81°
2026-04-21 18:16 19.04391 167.80425 32945 ft 514 kts 81°
2026-04-21 18:17 19.05623 167.87823 32939 ft 514 kts 81°
2026-04-21 18:17 19.06860 167.95272 32937 ft 514 kts 81°
2026-04-21 18:18 19.07887 168.01472 32937 ft 514 kts 81°
2026-04-21 18:18 19.09120 168.08934 32934 ft 514 kts 81°
2026-04-21 18:19 19.10347 168.16381 32937 ft 514 kts 81°
2026-04-21 18:19 19.11573 168.23833 32936 ft 514 kts 81°
2026-04-21 18:20 19.12796 168.31294 32939 ft 514 kts 81°
2026-04-21 18:20 19.14007 168.38696 32932 ft 514 kts 81°
2026-04-21 18:21 19.15222 168.46147 32939 ft 514 kts 81°
2026-04-21 18:21 19.16443 168.53650 32938 ft 514 kts 81°
2026-04-21 18:22 19.17647 168.61068 32938 ft 514 kts 81°
2026-04-21 18:22 19.18856 168.68536 32934 ft 514 kts 81°
2026-04-21 18:23 19.20060 168.75995 32937 ft 515 kts 81°
2026-04-21 18:23 19.21262 168.83459 32934 ft 515 kts 81°
2026-04-21 18:24 19.22460 168.90923 32941 ft 515 kts 81°
2026-04-21 18:24 19.23655 168.98387 32940 ft 515 kts 81°
2026-04-21 18:25 19.24848 169.05855 32937 ft 515 kts 81°
2026-04-21 18:25 19.26032 169.13286 32938 ft 515 kts 81°
2026-04-21 18:26 19.27219 169.20758 32938 ft 515 kts 81°
2026-04-21 18:26 19.28403 169.28232 32933 ft 515 kts 81°
2026-04-21 18:27 19.29585 169.35712 32940 ft 515 kts 81°
2026-04-21 18:27 19.30763 169.43188 32937 ft 515 kts 81°
2026-04-21 18:28 19.31937 169.50661 32937 ft 515 kts 81°
2026-04-21 18:28 19.33110 169.58143 32937 ft 515 kts 81°
2026-04-21 18:29 19.34279 169.65629 32941 ft 515 kts 81°
2026-04-21 18:29 19.35446 169.73114 32938 ft 515 kts 81°
2026-04-21 18:30 19.36611 169.80608 32938 ft 515 kts 81°
2026-04-21 18:30 19.37763 169.88046 32942 ft 516 kts 81°
2026-04-21 18:31 19.38922 169.95544 32944 ft 516 kts 81°
2026-04-21 18:31 19.40078 170.03045 32937 ft 516 kts 81°
2026-04-21 18:32 19.41231 170.10546 32939 ft 516 kts 81°
2026-04-21 18:32 19.42381 170.18049 32937 ft 516 kts 81°
2026-04-21 18:33 19.43528 170.25554 32936 ft 516 kts 81°
2026-04-21 18:33 19.44672 170.33058 32937 ft 516 kts 81°
2026-04-21 18:34 19.45813 170.40569 32942 ft 516 kts 81°
2026-04-21 18:34 19.46951 170.48076 32940 ft 516 kts 81°
2026-04-21 18:35 19.47894 170.54320 32938 ft 516 kts 81°
2026-04-21 18:35 19.49218 170.63104 32936 ft 516 kts 81°
2026-04-21 18:36 19.50342 170.70584 32940 ft 516 kts 81°
2026-04-21 18:36 19.51468 170.78099 32937 ft 516 kts 81°
2026-04-21 18:37 19.52590 170.85616 32937 ft 517 kts 81°
2026-04-21 18:37 19.53711 170.93137 32938 ft 517 kts 81°
2026-04-21 18:38 19.54829 171.00672 32947 ft 517 kts 81°
2026-04-21 18:38 19.55944 171.08197 32947 ft 517 kts 81°
2026-04-21 18:39 19.57056 171.15733 32941 ft 517 kts 82°
2026-04-21 18:39 19.58166 171.23272 32944 ft 517 kts 82°
2026-04-21 18:40 19.59272 171.30810 32946 ft 517 kts 82°
2026-04-21 18:40 19.60189 171.37073 32942 ft 517 kts 82°
2026-04-21 18:41 19.61467 171.45833 32944 ft 517 kts 82°
2026-04-21 18:41 19.62564 171.53373 32944 ft 517 kts 82°
2026-04-21 18:42 19.63657 171.60913 32946 ft 517 kts 82°
2026-04-21 18:42 19.64748 171.68456 32944 ft 517 kts 82°
2026-04-21 18:43 19.65835 171.75997 32943 ft 517 kts 82°
2026-04-21 18:43 19.66919 171.83544 32952 ft 517 kts 82°
2026-04-21 18:44 19.68001 171.91092 32950 ft 517 kts 82°
2026-04-21 18:44 19.69079 171.98642 32948 ft 517 kts 82°
2026-04-21 18:45 19.70154 172.06194 32944 ft 517 kts 82°
2026-04-21 18:45 19.71227 172.13752 32945 ft 518 kts 82°
2026-04-21 18:46 19.72296 172.21303 32948 ft 518 kts 82°
2026-04-21 18:46 19.73362 172.28860 32949 ft 518 kts 82°
2026-04-21 18:47 19.74418 172.36370 32953 ft 517 kts 82°
2026-04-21 18:47 19.75478 172.43930 32946 ft 518 kts 82°
2026-04-21 18:48 19.76535 172.51493 32956 ft 518 kts 82°
2026-04-21 18:48 19.77588 172.59049 32958 ft 517 kts 82°
2026-04-21 18:49 19.78638 172.66612 32957 ft 517 kts 82°
2026-04-21 18:49 19.79508 172.72889 32952 ft 517 kts 82°
2026-04-21 18:50 19.80728 172.81729 32955 ft 518 kts 82°
2026-04-21 18:50 19.81769 172.89293 32958 ft 518 kts 82°
2026-04-21 18:51 19.82806 172.96854 32958 ft 518 kts 82°
2026-04-21 18:51 19.83841 173.04429 32955 ft 518 kts 82°
2026-04-21 18:52 19.84867 173.11958 32956 ft 518 kts 82°
2026-04-21 18:52 19.85896 173.19533 32956 ft 518 kts 82°
2026-04-21 18:53 19.86921 173.27107 32956 ft 518 kts 82°
2026-04-21 18:53 19.87938 173.34689 32959 ft 518 kts 82°
2026-04-21 18:54 19.88914 173.42266 32961 ft 518 kts 83°
2026-04-21 18:54 19.89871 173.49805 32963 ft 518 kts 83°
2026-04-21 18:55 19.90679 173.56155 32964 ft 518 kts 83°
2026-04-21 18:55 19.91801 173.64972 32962 ft 518 kts 83°
2026-04-21 18:56 19.92766 173.72572 32964 ft 518 kts 83°
2026-04-21 18:56 19.93726 173.80158 32965 ft 518 kts 83°
2026-04-21 18:57 19.94682 173.87747 32966 ft 518 kts 83°
2026-04-21 18:57 19.95636 173.95342 32963 ft 518 kts 83°
2026-04-21 18:58 19.96586 174.02935 32968 ft 518 kts 83°
2026-04-21 18:58 19.97534 174.10536 32967 ft 518 kts 83°
2026-04-21 18:59 19.98478 174.18135 32971 ft 518 kts 83°
2026-04-21 18:59 19.99414 174.25687 32968 ft 518 kts 83°
2026-04-21 19:00 20.00353 174.33297 32966 ft 518 kts 83°
2026-04-21 19:00 20.01287 174.40897 32964 ft 518 kts 83°
2026-04-21 19:01 20.02219 174.48502 32970 ft 518 kts 83°
2026-04-21 19:01 20.03147 174.56108 32974 ft 519 kts 83°
2026-04-21 19:02 20.04073 174.63723 32970 ft 519 kts 83°
2026-04-21 19:02 20.04995 174.71332 32971 ft 519 kts 83°
2026-04-21 19:03 20.05913 174.78936 32971 ft 518 kts 83°
2026-04-21 19:03 20.06821 174.86484 32971 ft 518 kts 83°
2026-04-21 19:04 20.07733 174.94089 32973 ft 518 kts 83°
2026-04-21 19:04 20.08641 175.01696 32975 ft 518 kts 83°
2026-04-21 19:05 20.09546 175.09299 32972 ft 518 kts 83°
2026-04-21 19:05 20.10448 175.16909 32970 ft 518 kts 83°
2026-04-21 19:06 20.11346 175.24514 32969 ft 518 kts 83°
2026-04-21 19:06 20.12090 175.30834 32973 ft 518 kts 83°
2026-04-21 19:07 20.13125 175.39665 32973 ft 518 kts 83°
2026-04-21 19:07 20.14013 175.47271 32973 ft 517 kts 83°
2026-04-21 19:08 20.14755 175.53650 32977 ft 517 kts 83°
2026-04-21 19:08 20.15631 175.61203 32975 ft 517 kts 83°
2026-04-21 19:09 20.16508 175.68795 32975 ft 517 kts 83°
2026-04-21 19:09 20.17383 175.76394 32971 ft 517 kts 83°
2026-04-21 19:10 20.18253 175.83989 32972 ft 517 kts 83°
2026-04-21 19:10 20.19121 175.91590 32974 ft 517 kts 83°
2026-04-21 19:11 20.19978 175.99129 32975 ft 516 kts 83°
2026-04-21 19:11 20.20839 176.06727 32975 ft 517 kts 83°
2026-04-21 19:12 20.21697 176.14323 32975 ft 517 kts 83°
2026-04-21 19:12 20.22550 176.21914 32981 ft 517 kts 83°
2026-04-21 19:13 20.23402 176.29519 32980 ft 517 kts 83°
2026-04-21 19:13 20.24249 176.37114 32981 ft 517 kts 84°
2026-04-21 19:14 20.25094 176.44723 32980 ft 517 kts 84°
2026-04-21 19:14 20.25935 176.52326 32983 ft 517 kts 84°
2026-04-21 19:15 20.26774 176.59935 32984 ft 517 kts 84°
2026-04-21 19:15 20.27610 176.67555 32987 ft 517 kts 84°
2026-04-21 19:16 20.28442 176.75162 32983 ft 518 kts 84°
2026-04-21 19:16 20.29266 176.82733 32983 ft 518 kts 84°
2026-04-21 19:17 20.30504 176.94164 32986 ft 518 kts 84°
2026-04-21 19:17 20.31326 177.01791 32983 ft 518 kts 84°
2026-04-21 19:18 20.32145 177.09418 32987 ft 518 kts 84°
2026-04-21 19:18 20.32961 177.17055 32987 ft 518 kts 84°
2026-04-21 19:19 20.33774 177.24692 32986 ft 518 kts 84°
2026-04-21 19:19 20.34583 177.32329 32986 ft 518 kts 84°
2026-04-21 19:20 20.35389 177.39964 32988 ft 518 kts 84°
2026-04-21 19:20 20.36191 177.47595 32987 ft 519 kts 84°
2026-04-21 19:21 20.36991 177.55236 32991 ft 519 kts 84°
2026-04-21 19:21 20.37782 177.62829 32990 ft 519 kts 84°
2026-04-21 19:22 20.38575 177.70469 32987 ft 519 kts 84°
2026-04-21 19:22 20.39364 177.78110 32992 ft 519 kts 84°
2026-04-21 19:23 20.40151 177.85758 32992 ft 519 kts 84°
2026-04-21 19:23 20.40934 177.93404 32991 ft 519 kts 84°
2026-04-21 19:24 20.41714 178.01055 32993 ft 519 kts 84°
2026-04-21 19:24 20.42490 178.08699 32995 ft 519 kts 84°
2026-04-21 19:25 20.43263 178.16346 32995 ft 519 kts 84°
2026-04-21 19:25 20.44033 178.23994 32995 ft 519 kts 84°
2026-04-21 19:26 20.44800 178.31650 32995 ft 519 kts 84°
2026-04-21 19:26 20.45563 178.39297 32997 ft 518 kts 84°
2026-04-21 19:27 20.46318 178.46900 32999 ft 518 kts 84°
2026-04-21 19:27 20.47074 178.54554 32998 ft 518 kts 84°
2026-04-21 19:28 20.47828 178.62217 32999 ft 518 kts 84°
2026-04-21 19:28 20.48578 178.69868 33001 ft 518 kts 84°
2026-04-21 19:29 20.49324 178.77525 33002 ft 519 kts 84°
2026-04-21 19:29 20.50062 178.85125 33000 ft 519 kts 84°
2026-04-21 19:30 20.50801 178.92769 33001 ft 519 kts 84°
2026-04-21 19:30 20.51538 179.00433 33004 ft 519 kts 84°
2026-04-21 19:31 20.52270 179.08085 33005 ft 519 kts 84°
2026-04-21 19:31 20.52999 179.15740 33003 ft 519 kts 84°
2026-04-21 19:32 20.53725 179.23395 33002 ft 519 kts 84°
2026-04-21 19:32 20.54449 179.31063 33005 ft 519 kts 84°
2026-04-21 19:33 20.55168 179.38715 33006 ft 519 kts 84°
2026-04-21 19:33 20.55879 179.46325 33005 ft 519 kts 84°
2026-04-21 19:34 20.56596 179.54036 33005 ft 519 kts 84°
2026-04-21 19:34 20.57301 179.61643 33008 ft 519 kts 84°
2026-04-21 19:35 20.58358 179.73135 33008 ft 519 kts 84°
2026-04-21 19:36 20.59060 179.80807 33010 ft 519 kts 84°
2026-04-21 19:36 20.59758 179.88474 33008 ft 519 kts 84°
2026-04-21 19:37 20.60452 179.96136 33011 ft 519 kts 84°
2026-04-21 19:37 20.61134 -179.96204 33009 ft 519 kts 85°
2026-04-21 19:38 20.61772 -179.88565 33012 ft 519 kts 85°
2026-04-21 19:38 20.62299 -179.82140 33011 ft 519 kts 85°
2026-04-21 19:39 20.63032 -179.73219 33013 ft 519 kts 85°
2026-04-21 19:39 20.63664 -179.65539 33013 ft 519 kts 85°
2026-04-21 19:40 20.64294 -179.57850 33015 ft 519 kts 85°
2026-04-21 19:40 20.64920 -179.50170 33019 ft 520 kts 85°
2026-04-21 19:41 20.65543 -179.42480 33019 ft 520 kts 85°
2026-04-21 19:41 20.66162 -179.34793 33018 ft 520 kts 85°
2026-04-21 19:42 20.66778 -179.27101 33020 ft 520 kts 85°
2026-04-21 19:42 20.67388 -179.19446 33017 ft 520 kts 85°
2026-04-21 19:43 20.67997 -179.11750 33022 ft 520 kts 85°
2026-04-21 19:43 20.68604 -179.04046 33018 ft 520 kts 85°
2026-04-21 19:44 20.69208 -178.96332 33022 ft 521 kts 85°
2026-04-21 19:44 20.69807 -178.88629 33022 ft 521 kts 85°
2026-04-21 19:45 20.70404 -178.80921 33024 ft 521 kts 85°
2026-04-21 19:45 20.70994 -178.73252 33024 ft 521 kts 85°
2026-04-21 19:46 20.71586 -178.65517 33079 ft 523 kts 85°
2026-04-21 19:46 20.71882 -178.61629 33280 ft 524 kts 85°
2026-04-21 19:46 20.72176 -178.57755 33575 ft 523 kts 85°
2026-04-21 19:46 20.72468 -178.53895 33943 ft 520 kts 85°
2026-04-21 19:47 20.72759 -178.50048 34262 ft 518 kts 85°
2026-04-21 19:47 20.73047 -178.46219 34546 ft 516 kts 85°
2026-04-21 19:47 20.73333 -178.42403 34794 ft 515 kts 85°
2026-04-21 19:47 20.73618 -178.38594 35026 ft 514 kts 85°
2026-04-21 19:48 20.73901 -178.34793 35303 ft 512 kts 85°
2026-04-21 19:48 20.74178 -178.31067 35690 ft 507 kts 85°
2026-04-21 19:48 20.74460 -178.27274 35997 ft 505 kts 85°
2026-04-21 19:48 20.74732 -178.23586 36263 ft 502 kts 85°
2026-04-21 19:49 20.75008 -178.19844 36714 ft 496 kts 85°
2026-04-21 19:49 20.75277 -178.16175 36952 ft 496 kts 85°
2026-04-21 19:49 20.75544 -178.12536 36981 ft 499 kts 85°
2026-04-21 19:50 20.75999 -178.06304 37031 ft 505 kts 85°
2026-04-21 19:50 20.76635 -177.97546 37030 ft 511 kts 85°
2026-04-21 19:51 20.77182 -177.89944 37034 ft 515 kts 85°
2026-04-21 19:51 20.77727 -177.82335 37019 ft 510 kts 85°
2026-04-21 19:52 20.78261 -177.74839 37025 ft 504 kts 85°
2026-04-21 19:52 20.78788 -177.67378 37031 ft 502 kts 85°
2026-04-21 19:53 20.79308 -177.59982 37036 ft 502 kts 85°
2026-04-21 19:53 20.79830 -177.52523 37035 ft 503 kts 85°
2026-04-21 19:54 20.80348 -177.45052 37029 ft 505 kts 85°
2026-04-21 19:54 20.80866 -177.37554 37039 ft 506 kts 85°
2026-04-21 19:55 20.81382 -177.30027 37029 ft 508 kts 85°
2026-04-21 19:55 20.81808 -177.23766 37031 ft 509 kts 85°
2026-04-21 19:56 20.82321 -177.16205 37032 ft 509 kts 85°
2026-04-21 19:56 20.82829 -177.08654 37041 ft 510 kts 85°
2026-04-21 19:57 20.83335 -177.01085 37043 ft 510 kts 85°
2026-04-21 19:57 20.83837 -176.93517 37042 ft 510 kts 85°
2026-04-21 19:58 20.84336 -176.85953 37032 ft 510 kts 85°
2026-04-21 19:58 20.84828 -176.78447 37033 ft 509 kts 85°
2026-04-21 19:59 20.85320 -176.70900 37041 ft 509 kts 85°
2026-04-21 19:59 20.85807 -176.63355 37044 ft 508 kts 85°
2026-04-21 20:00 20.86291 -176.55818 37045 ft 508 kts 85°
2026-04-21 20:00 20.86772 -176.48284 37023 ft 508 kts 85°
2026-04-21 20:01 20.87248 -176.40759 37045 ft 507 kts 85°
2026-04-21 20:01 20.87721 -176.33235 37055 ft 507 kts 85°
2026-04-21 20:02 20.88192 -176.25701 37049 ft 508 kts 85°
2026-04-21 20:02 20.88659 -176.18160 37039 ft 508 kts 85°
2026-04-21 20:03 20.89124 -176.10615 37050 ft 508 kts 85°
2026-04-21 20:03 20.89581 -176.03126 37037 ft 508 kts 86°
2026-04-21 20:04 20.90039 -175.95580 37043 ft 508 kts 85°
2026-04-21 20:04 20.90494 -175.88032 37054 ft 508 kts 86°
2026-04-21 20:05 20.90945 -175.80484 37040 ft 509 kts 86°
2026-04-21 20:05 20.91393 -175.72933 37047 ft 509 kts 86°
2026-04-21 20:06 20.91838 -175.65373 37049 ft 509 kts 86°
2026-04-21 20:06 20.92277 -175.57867 37042 ft 509 kts 86°
2026-04-21 20:07 20.92715 -175.50319 37048 ft 509 kts 86°
2026-04-21 20:07 20.93151 -175.42755 37048 ft 509 kts 86°
2026-04-21 20:08 20.93582 -175.35206 37055 ft 509 kts 85°
2026-04-21 20:08 20.94010 -175.27654 37055 ft 508 kts 86°
2026-04-21 20:09 20.94434 -175.20106 37058 ft 508 kts 86°
2026-04-21 20:09 20.94857 -175.12543 37057 ft 508 kts 86°
2026-04-21 20:10 20.95275 -175.04990 37057 ft 508 kts 86°
2026-04-21 20:10 20.95686 -174.97503 37051 ft 508 kts 86°
2026-04-21 20:11 20.96097 -174.89952 37050 ft 508 kts 86°
2026-04-21 20:11 20.96505 -174.82410 37047 ft 508 kts 86°
2026-04-21 20:12 20.96910 -174.74847 37050 ft 508 kts 86°
2026-04-21 20:12 20.97311 -174.67309 37051 ft 508 kts 86°
2026-04-21 20:13 20.97706 -174.59812 37062 ft 508 kts 86°
2026-04-21 20:13 20.98100 -174.52267 37058 ft 508 kts 86°
2026-04-21 20:14 20.98491 -174.44721 37056 ft 508 kts 86°
2026-04-21 20:14 20.98879 -174.37178 37061 ft 508 kts 86°
2026-04-21 20:15 20.99263 -174.29630 37057 ft 508 kts 86°
2026-04-21 20:15 20.99644 -174.22081 37058 ft 508 kts 86°
2026-04-21 20:16 21.00022 -174.14533 37057 ft 508 kts 86°
2026-04-21 20:16 21.00394 -174.07027 37064 ft 508 kts 86°
2026-04-21 20:17 21.00766 -173.99474 37062 ft 508 kts 86°
2026-04-21 20:17 21.01133 -173.91926 37069 ft 508 kts 86°
2026-04-21 20:18 21.01439 -173.85597 37069 ft 508 kts 86°
2026-04-21 20:18 21.01860 -173.76811 37064 ft 508 kts 86°
2026-04-21 20:19 21.02218 -173.69254 37056 ft 508 kts 86°
2026-04-21 20:19 21.02573 -173.61695 37068 ft 508 kts 86°
2026-04-21 20:20 21.02921 -173.54191 37066 ft 508 kts 86°
2026-04-21 20:20 21.03269 -173.46642 37055 ft 508 kts 86°
2026-04-21 20:21 21.03613 -173.39097 37056 ft 507 kts 86°
2026-04-21 20:21 21.03954 -173.31549 37076 ft 507 kts 86°
2026-04-21 20:22 21.04292 -173.23995 37060 ft 507 kts 86°
2026-04-21 20:22 21.04790 -173.12734 37060 ft 507 kts 86°
2026-04-21 20:23 21.05119 -173.05191 37060 ft 507 kts 86°
2026-04-21 20:23 21.05444 -172.97660 37063 ft 507 kts 86°
2026-04-21 20:24 21.05766 -172.90123 37063 ft 507 kts 86°
2026-04-21 20:24 21.06085 -172.82582 37067 ft 507 kts 86°
2026-04-21 20:25 21.06400 -172.75052 37068 ft 506 kts 86°
2026-04-21 20:25 21.06712 -172.67518 37066 ft 506 kts 86°
2026-04-21 20:26 21.07021 -172.59986 37068 ft 506 kts 86°
2026-04-21 20:26 21.07326 -172.52453 37065 ft 506 kts 86°
2026-04-21 20:27 21.07628 -172.44920 37068 ft 506 kts 86°
2026-04-21 20:27 21.07926 -172.37389 37069 ft 506 kts 86°
2026-04-21 20:28 21.08221 -172.29861 37069 ft 506 kts 86°
2026-04-21 20:28 21.08513 -172.22330 37065 ft 506 kts 86°
2026-04-21 20:29 21.08800 -172.14853 37067 ft 506 kts 86°
2026-04-21 20:29 21.09085 -172.07320 37064 ft 506 kts 86°
2026-04-21 20:30 21.09368 -171.99785 37067 ft 506 kts 86°
2026-04-21 20:30 21.09621 -171.92255 37066 ft 506 kts 87°
2026-04-21 20:31 21.09840 -171.84725 37069 ft 506 kts 87°
2026-04-21 20:31 21.10054 -171.77243 37066 ft 506 kts 87°
2026-04-21 20:32 21.10272 -171.69720 37068 ft 505 kts 87°
2026-04-21 20:32 21.10489 -171.62201 37072 ft 505 kts 87°
2026-04-21 20:33 21.10703 -171.54678 37070 ft 505 kts 87°
2026-04-21 20:33 21.10914 -171.47156 37065 ft 505 kts 87°
2026-04-21 20:34 21.11121 -171.39635 37069 ft 505 kts 87°
2026-04-21 20:34 21.11325 -171.32113 37068 ft 505 kts 87°
2026-04-21 20:35 21.11525 -171.24599 37070 ft 505 kts 87°
2026-04-21 20:35 21.11722 -171.17084 37070 ft 505 kts 87°
2026-04-21 20:36 21.11915 -171.09567 37071 ft 505 kts 87°
2026-04-21 20:36 21.12106 -171.02049 37069 ft 505 kts 87°
2026-04-21 20:37 21.12292 -170.94579 37067 ft 505 kts 87°
2026-04-21 20:37 21.12475 -170.87056 37070 ft 505 kts 87°
2026-04-21 20:38 21.12656 -170.79534 37070 ft 505 kts 87°
2026-04-21 20:38 21.12833 -170.72014 37069 ft 505 kts 87°
2026-04-21 20:39 21.13007 -170.64495 37069 ft 505 kts 87°
2026-04-21 20:39 21.13177 -170.56976 37069 ft 505 kts 87°
2026-04-21 20:40 21.13344 -170.49456 37070 ft 505 kts 87°
2026-04-21 20:40 21.13508 -170.41940 37069 ft 505 kts 87°
2026-04-21 20:41 21.13668 -170.34427 37072 ft 504 kts 87°
2026-04-21 20:41 21.13825 -170.26917 37070 ft 504 kts 87°
2026-04-21 20:42 21.13978 -170.19454 37068 ft 504 kts 87°
2026-04-21 20:42 21.14128 -170.11949 37070 ft 504 kts 87°
2026-04-21 20:43 21.14275 -170.04441 37068 ft 504 kts 87°
2026-04-21 20:43 21.14419 -169.96944 37068 ft 504 kts 87°
2026-04-21 20:44 21.14536 -169.90701 37068 ft 504 kts 87°
2026-04-21 20:44 21.14674 -169.83191 37073 ft 504 kts 87°
2026-04-21 20:45 21.14808 -169.75684 37071 ft 504 kts 87°
2026-04-21 20:45 21.14939 -169.68183 37072 ft 504 kts 87°
2026-04-21 20:46 21.15067 -169.60667 37072 ft 504 kts 87°
2026-04-21 20:46 21.15191 -169.53160 37071 ft 504 kts 87°
2026-04-21 20:47 21.15311 -169.45700 37072 ft 504 kts 87°
2026-04-21 20:47 21.15429 -169.38194 37073 ft 504 kts 87°
2026-04-21 20:48 21.15544 -169.30679 37074 ft 504 kts 87°
2026-04-21 20:48 21.15655 -169.23172 37076 ft 504 kts 87°
2026-04-21 20:49 21.15763 -169.15668 37074 ft 504 kts 87°
2026-04-21 20:49 21.15867 -169.08152 37073 ft 504 kts 87°
2026-04-21 20:50 21.15969 -169.00642 37072 ft 504 kts 87°
2026-04-21 20:50 21.16066 -168.93139 37072 ft 504 kts 87°
2026-04-21 20:51 21.16161 -168.85631 37074 ft 504 kts 87°
2026-04-21 20:51 21.16252 -168.78124 37072 ft 504 kts 87°
2026-04-21 20:52 21.16340 -168.70667 37076 ft 503 kts 87°
2026-04-21 20:52 21.16424 -168.63167 37074 ft 503 kts 87°
2026-04-21 20:53 21.16505 -168.55672 37076 ft 503 kts 87°
2026-04-21 20:53 21.16583 -168.48171 37074 ft 503 kts 87°
2026-04-21 20:54 21.16658 -168.40677 37071 ft 503 kts 87°
2026-04-21 20:54 21.16729 -168.33182 37074 ft 503 kts 88°
2026-04-21 20:55 21.16797 -168.25682 37073 ft 503 kts 88°
2026-04-21 20:55 21.16862 -168.18184 37075 ft 503 kts 88°
2026-04-21 20:56 21.16924 -168.10692 37072 ft 503 kts 88°
2026-04-21 20:56 21.16982 -168.03197 37072 ft 503 kts 88°
2026-04-21 20:57 21.17036 -167.95751 37078 ft 503 kts 88°
2026-04-21 20:57 21.17088 -167.88252 37074 ft 503 kts 88°
2026-04-21 20:58 21.17136 -167.80755 37081 ft 503 kts 88°
2026-04-21 20:58 21.17181 -167.73260 37077 ft 503 kts 87°
2026-04-21 20:59 21.17223 -167.65761 37079 ft 503 kts 87°
2026-04-21 20:59 21.17261 -167.58273 37077 ft 503 kts 87°
2026-04-21 21:00 21.17296 -167.50775 37080 ft 503 kts 87°
2026-04-21 21:00 21.17327 -167.43325 37075 ft 503 kts 87°
2026-04-21 21:01 21.17356 -167.35831 37082 ft 502 kts 87°
2026-04-21 21:01 21.17381 -167.28341 37085 ft 502 kts 87°
2026-04-21 21:02 21.17403 -167.20848 37078 ft 502 kts 87°
2026-04-21 21:02 21.17421 -167.13360 37081 ft 502 kts 87°
2026-04-21 21:03 21.17436 -167.05927 37080 ft 502 kts 87°
2026-04-21 21:03 21.17448 -166.98452 37080 ft 502 kts 87°
2026-04-21 21:04 21.17457 -166.90975 37076 ft 501 kts 88°
2026-04-21 21:04 21.17462 -166.83509 37080 ft 501 kts 88°
2026-04-21 21:05 21.17464 -166.76036 37080 ft 501 kts 88°
2026-04-21 21:05 21.17463 -166.68572 37077 ft 501 kts 88°
2026-04-21 21:06 21.17459 -166.61093 37080 ft 501 kts 88°
2026-04-21 21:06 21.17451 -166.53671 37081 ft 501 kts 88°
2026-04-21 21:07 21.17440 -166.46214 37080 ft 501 kts 88°
2026-04-21 21:07 21.17426 -166.38745 37080 ft 501 kts 88°
2026-04-21 21:08 21.17408 -166.31288 37078 ft 501 kts 88°
2026-04-21 21:08 21.17387 -166.23812 37082 ft 501 kts 88°
2026-04-21 21:09 21.17363 -166.16348 37081 ft 501 kts 88°
2026-04-21 21:09 21.17336 -166.08884 37077 ft 501 kts 88°
2026-04-21 21:10 21.17305 -166.01419 37081 ft 501 kts 88°
2026-04-21 21:10 21.17271 -165.93955 37079 ft 501 kts 88°
2026-04-21 21:11 21.17234 -165.86488 37081 ft 501 kts 88°
2026-04-21 21:11 21.17193 -165.79025 37083 ft 501 kts 88°
2026-04-21 21:12 21.17150 -165.71605 37084 ft 501 kts 88°
2026-04-21 21:12 21.17103 -165.64139 37079 ft 501 kts 88°
2026-04-21 21:13 21.17052 -165.56679 37081 ft 501 kts 88°
2026-04-21 21:13 21.16999 -165.49208 37080 ft 501 kts 88°
2026-04-21 21:14 21.16942 -165.41750 37081 ft 501 kts 88°
2026-04-21 21:14 21.16882 -165.34280 37081 ft 501 kts 88°
2026-04-21 21:15 21.16819 -165.26818 37081 ft 501 kts 88°
2026-04-21 21:15 21.16752 -165.19345 37083 ft 501 kts 88°
2026-04-21 21:16 21.16682 -165.11879 37081 ft 501 kts 88°
2026-04-21 21:16 21.16608 -165.04405 37085 ft 502 kts 88°
2026-04-21 21:17 21.16532 -164.96977 37082 ft 502 kts 88°
2026-04-21 21:17 21.16452 -164.89498 37077 ft 502 kts 88°
2026-04-21 21:18 21.16369 -164.82023 37082 ft 502 kts 88°
2026-04-21 21:18 21.16283 -164.74541 37085 ft 502 kts 88°
2026-04-21 21:19 21.16193 -164.67052 37076 ft 502 kts 88°
2026-04-21 21:19 21.16099 -164.59563 37085 ft 502 kts 88°
2026-04-21 21:20 21.16003 -164.52078 37078 ft 502 kts 88°
2026-04-21 21:20 21.15903 -164.44592 37078 ft 502 kts 88°
2026-04-21 21:21 21.15801 -164.37170 37077 ft 502 kts 89°
2026-04-21 21:21 21.15695 -164.29686 37081 ft 502 kts 89°
2026-04-21 21:22 21.15585 -164.22209 37079 ft 502 kts 89°
2026-04-21 21:22 21.15473 -164.14737 37077 ft 502 kts 89°
2026-04-21 21:23 21.15357 -164.07264 37077 ft 502 kts 89°
2026-04-21 21:23 21.15238 -163.99790 37083 ft 502 kts 89°
2026-04-21 21:24 21.15116 -163.92321 37081 ft 502 kts 88°
2026-04-21 21:24 21.15252 -163.84903 37081 ft 500 kts 85°
2026-04-21 21:25 21.15545 -163.77462 37078 ft 500 kts 85°
2026-04-21 21:25 21.15835 -163.70009 37079 ft 500 kts 85°
2026-04-21 21:26 21.16098 -163.62560 37082 ft 500 kts 85°
2026-04-21 21:26 21.16347 -163.55094 37078 ft 500 kts 85°
2026-04-21 21:27 21.16590 -163.47641 37084 ft 500 kts 85°
2026-04-21 21:27 21.16831 -163.40192 37082 ft 500 kts 85°
2026-04-21 21:28 21.17070 -163.32734 37084 ft 500 kts 85°
2026-04-21 21:29 21.17423 -163.21566 37085 ft 500 kts 85°
2026-04-21 21:29 21.17654 -163.14118 37084 ft 500 kts 86°
2026-04-21 21:30 21.17880 -163.06714 37083 ft 500 kts 86°
2026-04-21 21:30 21.18105 -162.99251 37085 ft 500 kts 86°
2026-04-21 21:31 21.18325 -162.91814 37085 ft 500 kts 86°
2026-04-21 21:31 21.18543 -162.84365 37084 ft 500 kts 86°
2026-04-21 21:32 21.18758 -162.76920 37084 ft 500 kts 86°
2026-04-21 21:32 21.18969 -162.69479 37084 ft 500 kts 86°
2026-04-21 21:33 21.19142 -162.63282 37085 ft 500 kts 86°
2026-04-21 21:33 21.19380 -162.54629 37080 ft 500 kts 86°
2026-04-21 21:34 21.19549 -162.48388 37084 ft 500 kts 86°
2026-04-21 21:34 21.19748 -162.40941 37085 ft 500 kts 86°
2026-04-21 21:35 21.19943 -162.33487 37074 ft 500 kts 86°
2026-04-21 21:35 21.20136 -162.26035 37090 ft 500 kts 86°
2026-04-21 21:36 21.20323 -162.18624 37077 ft 501 kts 86°
2026-04-21 21:36 21.20509 -162.11170 37076 ft 501 kts 86°
2026-04-21 21:37 21.20692 -162.03707 37093 ft 501 kts 86°
2026-04-21 21:37 21.20871 -161.96247 37077 ft 501 kts 86°
2026-04-21 21:38 21.21048 -161.88778 37082 ft 501 kts 86°
2026-04-21 21:38 21.21221 -161.81315 37082 ft 501 kts 86°
2026-04-21 21:39 21.21390 -161.73849 37086 ft 501 kts 86°
2026-04-21 21:39 21.21557 -161.66378 37085 ft 501 kts 86°
2026-04-21 21:40 21.21720 -161.58913 37082 ft 501 kts 86°
2026-04-21 21:40 21.21880 -161.51445 37080 ft 501 kts 86°
2026-04-21 21:41 21.22036 -161.43985 37083 ft 501 kts 86°
2026-04-21 21:41 21.22189 -161.36512 37087 ft 501 kts 86°
2026-04-21 21:42 21.22339 -161.29040 37081 ft 501 kts 86°
2026-04-21 21:42 21.22486 -161.21580 37082 ft 501 kts 86°
2026-04-21 21:43 21.22629 -161.14158 37083 ft 501 kts 86°
2026-04-21 21:43 21.22769 -161.06695 37090 ft 501 kts 86°
2026-04-21 21:44 21.23278 -160.99268 37096 ft 498 kts 81°
2026-04-21 21:44 21.24036 -160.91881 37082 ft 498 kts 81°
2026-04-21 21:45 21.24793 -160.84502 37083 ft 498 kts 81°
2026-04-21 21:45 21.25519 -160.77122 37083 ft 498 kts 81°
2026-04-21 21:46 21.26230 -160.69739 37083 ft 497 kts 81°
2026-04-21 21:46 21.26929 -160.62414 37084 ft 497 kts 81°
2026-04-21 21:47 21.27632 -160.55043 37089 ft 497 kts 81°
2026-04-21 21:47 21.28331 -160.47682 37085 ft 496 kts 81°
2026-04-21 21:48 21.29027 -160.40318 37086 ft 496 kts 81°
2026-04-21 21:48 21.29721 -160.32951 37085 ft 496 kts 81°
2026-04-21 21:49 21.30410 -160.25595 37086 ft 496 kts 81°
2026-04-21 21:49 21.31096 -160.18233 37084 ft 496 kts 81°
2026-04-21 21:50 21.31780 -160.10865 37087 ft 496 kts 81°
2026-04-21 21:50 21.32460 -160.03493 37089 ft 497 kts 81°
2026-04-21 21:51 21.33137 -159.96122 37083 ft 497 kts 81°
2026-04-21 21:51 21.33808 -159.88787 37083 ft 497 kts 81°
2026-04-21 21:52 21.34480 -159.81400 37083 ft 498 kts 81°
2026-04-21 21:52 21.35154 -159.73955 37083 ft 497 kts 81°
2026-04-21 21:52 21.35480 -159.70337 36915 ft 491 kts 81°
2026-04-21 21:53 21.35804 -159.66714 36514 ft 486 kts 81°
2026-04-21 21:53 21.36128 -159.63105 35696 ft 484 kts 81°
2026-04-21 21:53 21.36450 -159.59509 34322 ft 484 kts 82°
2026-04-21 21:53 21.36776 -159.55889 32542 ft 490 kts 82°
2026-04-21 21:54 21.37103 -159.52235 31150 ft 490 kts 83°
2026-04-21 21:54 21.37421 -159.48651 30432 ft 474 kts 83°
2026-04-21 21:54 21.37725 -159.45193 29653 ft 458 kts 83°
2026-04-21 21:54 21.38019 -159.41840 28844 ft 445 kts 83°
2026-04-21 21:55 21.38305 -159.38584 28056 ft 432 kts 83°
2026-04-21 21:55 21.38584 -159.35412 27305 ft 423 kts 83°
2026-04-21 21:55 21.38860 -159.32287 26580 ft 419 kts 83°
2026-04-21 21:55 21.39135 -159.29173 25887 ft 420 kts 83°
2026-04-21 21:56 21.39409 -159.26056 25210 ft 419 kts 83°
2026-04-21 21:56 21.39681 -159.22954 24541 ft 416 kts 83°
2026-04-21 21:56 21.39950 -159.19865 23870 ft 412 kts 83°
2026-04-21 21:56 21.40215 -159.16818 23144 ft 409 kts 83°
2026-04-21 21:57 21.40474 -159.13838 22396 ft 405 kts 83°
2026-04-21 21:57 21.40733 -159.10845 21653 ft 400 kts 83°
2026-04-21 21:57 21.40988 -159.07891 20937 ft 396 kts 83°
2026-04-21 21:57 21.41241 -159.04961 20219 ft 391 kts 83°
2026-04-21 21:58 21.41489 -159.02073 19514 ft 386 kts 83°
2026-04-21 21:58 21.41734 -158.99223 18847 ft 381 kts 83°
2026-04-21 21:58 21.41975 -158.96408 18151 ft 376 kts 83°
2026-04-21 21:58 21.42213 -158.93629 17391 ft 371 kts 83°
2026-04-21 21:59 21.42447 -158.90890 16645 ft 367 kts 83°
2026-04-21 21:59 21.42678 -158.88181 15920 ft 363 kts 83°
2026-04-21 21:59 21.42906 -158.85502 15216 ft 358 kts 83°
2026-04-21 21:59 21.43131 -158.82853 14520 ft 355 kts 83°
2026-04-21 22:00 21.43353 -158.80231 13901 ft 350 kts 83°
2026-04-21 22:00 21.43570 -158.77669 13527 ft 342 kts 83°
2026-04-21 22:00 21.43786 -158.75113 13086 ft 339 kts 83°
2026-04-21 22:00 21.43994 -158.72647 12639 ft 324 kts 83°
2026-04-21 22:01 21.44191 -158.70295 12181 ft 309 kts 83°
2026-04-21 22:01 21.44379 -158.68057 11752 ft 300 kts 84°
2026-04-21 22:01 21.44565 -158.65841 11347 ft 298 kts 84°
2026-04-21 22:01 21.44751 -158.63630 10954 ft 297 kts 84°
2026-04-21 22:02 21.44936 -158.61426 10560 ft 296 kts 84°
2026-04-21 22:02 21.45119 -158.59226 10170 ft 295 kts 84°
2026-04-21 22:02 21.45306 -158.56996 9814 ft 304 kts 84°
2026-04-21 22:02 21.45494 -158.54731 9377 ft 304 kts 84°
2026-04-21 22:03 21.45680 -158.52497 8929 ft 297 kts 84°
2026-04-21 22:03 21.45860 -158.50324 8505 ft 289 kts 84°
2026-04-21 22:03 21.46036 -158.48194 8156 ft 285 kts 84°
2026-04-21 22:03 21.46193 -158.46057 8097 ft 287 kts 90°
2026-04-21 22:04 21.45758 -158.43995 8089 ft 284 kts 118°
2026-04-21 22:04 21.44747 -158.42161 7934 ft 288 kts 122°
2026-04-21 22:04 21.43690 -158.40330 7690 ft 287 kts 122°
2026-04-21 22:04 21.42644 -158.38521 7471 ft 283 kts 122°
2026-04-21 22:05 21.41615 -158.36737 7237 ft 279 kts 122°
2026-04-21 22:05 21.40595 -158.34961 7035 ft 279 kts 122°
2026-04-21 22:05 21.39582 -158.33196 6827 ft 278 kts 122°
2026-04-21 22:05 21.38572 -158.31428 6607 ft 277 kts 122°
2026-04-21 22:06 21.37564 -158.29664 6407 ft 277 kts 122°
2026-04-21 22:06 21.36561 -158.27909 6178 ft 276 kts 122°
2026-04-21 22:06 21.35557 -158.26149 5964 ft 276 kts 122°
2026-04-21 22:06 21.34556 -158.24395 5749 ft 276 kts 122°
2026-04-21 22:07 21.33557 -158.22646 5528 ft 275 kts 122°
2026-04-21 22:07 21.32561 -158.20900 5301 ft 273 kts 122°
2026-04-21 22:07 21.31581 -158.19187 5106 ft 272 kts 122°
2026-04-21 22:07 21.30543 -158.17505 4870 ft 270 kts 133°
2026-04-21 22:08 21.29024 -158.16387 4618 ft 261 kts 156°
2026-04-21 22:08 21.27400 -158.15606 4402 ft 251 kts 155°
2026-04-21 22:08 21.25853 -158.14830 4137 ft 240 kts 155°
2026-04-21 22:08 21.24383 -158.14083 3881 ft 228 kts 151°
2026-04-21 22:09 21.23245 -158.12988 3572 ft 220 kts 116°
2026-04-21 22:09 21.22879 -158.11410 3522 ft 220 kts 91°
2026-04-21 22:09 21.22968 -158.09770 3528 ft 222 kts 84°
2026-04-21 22:09 21.23143 -158.08122 3203 ft 221 kts 83°
2026-04-21 22:10 21.23318 -158.06508 2898 ft 215 kts 83°
2026-04-21 22:10 21.23484 -158.04945 2647 ft 206 kts 82°
2026-04-21 22:10 21.23962 -158.03580 2404 ft 189 kts 58°
2026-04-21 22:10 21.24659 -158.02357 2204 ft 193 kts 57°
2026-04-21 22:11 21.25425 -158.01189 1956 ft 189 kts 53°
2026-04-21 22:11 21.26200 -158.00088 1699 ft 180 kts 52°
2026-04-21 22:11 21.26939 -157.99040 1469 ft 174 kts 53°
2026-04-21 22:11 21.27675 -157.97994 1259 ft 177 kts 53°
2026-04-21 22:12 21.28414 -157.96944 1012 ft 179 kts 53°
2026-04-21 22:12 21.29159 -157.95885 765 ft 176 kts 54°
2026-04-21 22:12 21.29887 -157.94849 535 ft 170 kts 55°
2026-04-21 22:12 21.30581 -157.93865 315 ft 161 kts 56°
2026-04-21 22:13 21.31252 -157.92929 65 ft 153 kts 55°
2026-04-21 22:13 21.31844 -157.92075 25 ft 132 kts 54°
2026-04-21 22:13 21.32141 -157.91654 19 ft 36 kts 53°
2026-04-21 22:13 21.32289 -157.91465 17 ft 31 kts 40°
2026-04-21 22:14 21.32436 -157.91366 18 ft 20 kts 25°
2026-04-21 22:14 21.32571 -157.91333 20 ft 20 kts 10°
2026-04-21 22:14 21.32677 -157.91334 23 ft 11 kts 316°
2026-04-21 22:14 21.32688 -157.91418 25 ft 12 kts 271°
2026-04-21 22:15 21.32691 -157.91572 25 ft 26 kts 270°
2026-04-21 22:15 21.32689 -157.91760 26 ft 19 kts 270°
2026-04-21 22:15 21.32696 -157.91837 26 ft 9 kts 297°
2026-04-21 22:15 21.32735 -157.91888 26 ft 9 kts 307°
2026-04-21 22:16 21.32763 -157.91949 24 ft 9 kts 287°
2026-04-21 22:16 21.32772 -157.92019 22 ft 9 kts 273°
2026-04-21 22:16 21.32774 -157.92089 23 ft 9 kts 271°
2026-04-21 22:16 21.32775 -157.92160 24 ft 9 kts 271°
2026-04-21 22:17 21.32793 -157.92225 27 ft 10 kts 313°
2026-04-21 22:17 21.32860 -157.92238 23 ft 11 kts
2026-04-21 22:17 21.32940 -157.92227 20 ft 12 kts
2026-04-21 22:17 21.33029 -157.92212 19 ft 13 kts 10°
2026-04-21 22:18 21.33116 -157.92195 22 ft 7 kts
2026-04-21 22:18 21.33135 -157.92192 25 ft 0 kts